www.pogodaiklimat.ru

Погода и климат >> Архив погоды >> Канада >> Toronto


АРХИВ ПОГОДЫ в Toronto

Время (UTC), дата Ветер
(напр.,м/с)
 
Видим.   Явления Облачность Т
(С)
Тd
(С)
f
(%)
Тe
(С)
Тes
(С)
Комфортность P
(гПа)
Po
(гПа)
Тmin
(С)
Tmax
(С)
R
(мм)
R24
(мм)
S
(см)
06 10.07 З 4 24 км 4/0
[Ac trans Ci fib]
+22.7 +17.2 71 +28 +28 душно 1014.9 994.6 +14.8 +32.4 200
09 10.07 СЗ 5 24 км 8/8 1000 м
[]
+23.1 +15.9 64 +28 +28 душно 1014.4 994.1
12 10.07 З 4 24 км в посл. час ливневой дождь 5/3 1500 м
[Cu med, cong Ac As]
+21.8 +15.5 67 +25 +27 комфорт 1015.2 994.8 +21.8 +32.4 0.0
15 10.07 СЗ 5 24 км ясно +27.6 +12.5 39 +29 +36 жарко 1014.9 994.5
18 10.07 С 6 24 км 1/1 1500 м
[Cu hum Ci fib]
+28.9 +11.8 35 +30 +37 жарко 1014.8 994.4 +21.8 +29.6
21 10.07 С 8 24 км 4/4 1500 м
[]
+27.9 +12.8 39 +29 +30 жарко 1014.5 994.1
00 11.07 С 8 24 км 6/1 1500 м
[Cu hum Ac trans Ci fib]
+24.3 +10.8 43 +26 +26 жарко 1015.7 995.2 +21.8 +29.7
03 11.07 С 7 24 км 5/0 2000 м
[]
+21.1 +11.3 54 +23 +23 комфорт 1017.0 996.5
06 11.07 С 6 24 км 3/0
[Ci fib]
+18.8 +12.5 67 +19 +19 тепло 1017.4 996.9 +18.8 +29.7 231
09 11.07 С 5 24 км 3/0
[]
+17.5 +12.9 74 +17 +17 по сезону 1018.5 997.9
12 11.07 С 4 24 км ясно +19.8 +13.3 66 +22 +24 комфорт 1019.9 999.2 +17.1 +29.7
15 11.07 С 4 24 км 5/5 1500 м
[]
+25.1 +9.6 37 +26 +31 жарко 1020.1 999.4
18 11.07 С 2 24 км 6/5 2000 м
[Cu hum Ci fib]
+25.9 +10.1 37 +27 +36 жарко 1019.8 999.1 +17.1 +26.6
21 11.07 ЮВ 4 24 км 8/0 2000 м
[]
+24.1 +11.2 44 +25 +29 комфорт 1019.9 999.2
00 12.07 ЮВ 3 24 км ясно +24.0 +9.9 41 +25 +25 комфорт 1019.6 998.9 +17.1 +27.3
03 12.07 С 4 24 км ясно +21.6 +9.5 46 +23 +23 комфорт 1021.2 1000.5
06 12.07 СЗ 4 24 км ясно +19.4 +10.1 55 +20 +20 тепло 1022.0 1001.3 +17.1 +27.3 19
09 12.07 СЗ 3 24 км 1/0
[]
+17.5 +10.6 64 +18 +18 по сезону 1022.2 1001.4
12 12.07 З 2 24 км ясно +20.5 +11.0 54 +23 +26 комфорт 1023.4 1002.6 +16.8 +27.3
15 12.07 С 1 24 км 6/6 1000 м
[]
+26.8 +11.7 39 +28 +35 жарко 1023.5 1002.8
18 12.07 Ю 4 24 км 8/1 2000 м
[Cu hum Ci sp]
+28.8 +12.3 36 +30 +39 жарко 1022.9 1002.2 +16.8 +28.8
21 12.07 ЮВ 5 24 км 6/6 1500 м
[]
+28.4 +9.2 30 +28 +30 жарко 1022.3 1001.6
00 13.07 Ю 3 24 км 9/0
[Ac As Ci sp]
+26.6 +8.2 31 +27 +27 жарко 1021.9 1001.2 +16.8 +29.8
03 13.07 Ю 2 24 км 10/0
[]
+25.2 +9.5 37 +26 +26 жарко 1021.3 1000.8
06 13.07 ЮЗ 2 24 км 10/0
[Ac As]
+23.3 +11.7 48 +26 +26 жарко 1022.1 1001.6 +16.8 +29.8 20
09 13.07 З 2 24 км 9/0
[]
+21.9 +12.0 53 +24 +24 комфорт 1021.8 1001.3
12 13.07 ЮВ 3 24 км 8/0
[Ac As Ci fib]
+24.4 +15.5 58 +27 +29 жарко 1021.9 1001.4 +21.2 +29.8
15 13.07 ЮВ 3 24 км 8/0
[]
+27.7 +16.5 50 +31 +38 душно 1021.1 1000.6
18 13.07 Ю 4 24 км 9/1 1500 м
[Cu hum Ac As]
+29.2 +16.1 45 +32 +37 душно 1020.5 1000.0 +21.2 +30.1
21 13.07 Ю 5 24 км 9/9 1500 м
[]
+28.9 +14.2 41 +31 +32 жарко 1019.1 998.6
00 14.07 ЮЗ 5 24 км 6/0
[Ac As Ci fib]
+29.0 +12.0 35 +30 +30 жарко 1017.7 997.3 +21.2 +30.4
03 14.07 Ю 2 24 км 8/0 2000 м
[]
+26.7 +10.5 36 +27 +27 жарко 1017.7 997.3
06 14.07 З 4 24 км 8/0
[Ac As]
+24.3 +13.5 51 +27 +27 жарко 1017.5 997.1 +21.2 +30.4 23
09 14.07 З 2 24 км 9/0
[]
+22.0 +13.8 60 +25 +25 комфорт 1017.1 996.7
12 14.07 ЮЗ 3 24 км 9/0 2000 м
[Ac As Ci sp]
+23.8 +14.3 55 +26 +28 жарко 1017.9 997.5 +21.4 +30.4
15 14.07 СВ 1 24 км 10/10 1000 м
[]
+27.3 +17.9 56 +32 +32 очень
душно
1017.2 996.8
18 14.07 ЮВ 2 24 км слабый дождь 10/4 600 м
[Cu Sc Ac As]
+26.7 +19.7 65 +32 +36 очень
душно
1017.5 997.1 +21.4 +28.8 0.2
21 14.07 ЮЗ 4 24 км 10/10 600 м
[]
+27.5 +19.7 62 +33 +33 очень
душно
1016.7 996.3
00 15.07 ЮЗ 4 24 км {дождь} 9/1 1500 м
[Cu hum Ac As Ci sp]
+25.6 +18.8 66 +31 +31 очень
душно
1015.4 995.0 +21.4 +28.8 0.0
03 15.07 З 1 24 км 4/0
[]
+23.7 +18.5 73 +28 +28 душно 1016.0 995.6
06 15.07 СЗ 1 24 км 4/0 2000 м
[Ac As]
+22.4 +18.7 80 +28 +28 душно 1015.8 995.4 +21.4 +28.8 23
09 15.07 СЗ 2 19 км ясно +21.6 +19.6 88 +27 +27 душно 1015.8 995.4
12 15.07 С 3 24 км 3/0
[Ac As Ci fib]
+23.5 +20.3 82 +29 +31 душно 1016.2 995.8 +21.3 +28.8
15 15.07 ЮВ 2 24 км 5/5 1000 м
[]
+26.8 +19.2 63 +32 +39 очень
душно
1015.5 995.1
18 15.07 ЮВ 4 24 км 1/1 1000 м
[Cu hum]
+28.7 +20.5 61 +35 +46 очень
душно
1015.4 995.0 +21.3 +29.4
21 15.07 ЮВ 4 24 км 4/4 1500 м
[]
+29.9 +19.2 53 +36 +39 очень
душно
1014.4 994.0
00 16.07 ЮВ 3 24 км 8/1 1500 м
[Cu med, cong Ci sp]
+28.1 +17.9 54 +33 +33 очень
душно
1013.7 993.3 +21.3 +30.4
03 16.07 Ю 2 24 км 1/0
[]
+24.8 +18.9 70 +30 +30 душно 1014.1 993.7
06 16.07 В 1 24 км 3/3 1000 м
[Sc]
+24.2 +19.5 75 +29 +29 душно 1014.0 993.7 +21.3 +30.4
09 16.07 ЮВ 2 24 км 6/6 1500 м
[]
+23.1 +20.9 87 +31 +31 очень
душно
1013.6 993.3
12 16.07 ЮВ 1 24 км 9/9 1500 м
[Sc]
+25.3 +22.0 82 +33 +33 очень
душно
1013.5 993.2 +23.0 +30.4
15 16.07 Ю 3 24 км 9/9 1500 м
[]
+28.4 +20.9 64 +36 +37 очень
душно
1012.7 992.4
18 16.07 СВ 6 24 км зарница 9/8 1000 м
[Cb calv Ci fib]
+27.9 +20.8 65 +35 +36 очень
душно
1011.5 991.2 +23.0 +32.1
21 16.07 СВ 2 24 км 9/9 1500 м
[]
+25.3 +21.6 80 +32 +33 очень
душно
1010.6 990.3
00 17.07 ЮВ 2 12 км гроза, ливневой дождь 10/4 1000 м
[Cb cap Ac cuf]
+21.8 +20.2 91 +28 +28 душно 1009.9 989.5 +21.0 +32.1 8

 

Местоположение метеостанции Toronto (Канада): широта 43.67 долгота -79.63 высота над уровнем моря 173 м.

В архиве по умолчанию представлена погода в Toronto за последнюю неделю. Архивные данные за месяц целиком и за предыдущие месяцы, начиная с января 2011 года, Вы можете получить, выбрав интересующий диапазон дат из раскрывающегося списка и нажав кнопку "Ввод!".


*Определитесь, кто Вы:
робот инопланетянин человек

Внимание! Время в таблицах - всемирное. Для получения местного времени необходимо прибавить поправку, которая в Toronto равна -5 ч.

Смотрите также архив погоды в соседних городах и на ближайших метеорологических станциях:

Погода в Toronto Aes Hq (Канада) (18 км)
Погода в Toronto City (Канада) (19 км)
Погода в Toronto Island Arpt (Канада) (19 км)
Погода в Toronto Buttonville (Канада) (31 км)
Погода в Buttonville (Канада) (31 км)
Погода в Burlington Piers (Канада) (43 км)
Погода в Hamilton Rbg Cs (Канада) (49 км)
Погода в Guelph Turfgrass (Канада) (49 км)
Погода в Vineland Station Rc (Канада) (58 км)
Погода в Port Weller (Канада) (58 км)

Пояснения к столбцам:

Ветер - указаны скорость ветра в м/с - средняя за 10 мин, порывы в срок и между сроками (в фигурных скобках) и направление, откуда дует ветер: С - северный, СВ - северо-восточный, В - восточный, ЮВ - юго-восточный, Ю - южный, ЮЗ - юго-западный, З - западный, СЗ - северо-западный.
Видимость - горизонтальная дальность видимости в метрах или километрах. При видимости от 1 до 10 км при отсутствии осадков обычно наблюдается дымка, при ухудшении видимости до 1 км и менее - туман. В сухую погоду видимость может ухудшаться дымом, пылью или мглою.
Явления - указаны атмосферные явления, наблюдавшиеся в срок или в последний час перед сроком; фигурными скобками обозначены явления, наблюдавшиеся между сроками (за 1-3 часа до срока); квадратными скобками обозначены град или гололедные отложения с указанием их диаметра в мм.
Облачность - указаны через наклонную черту общая и нижняя облачность в баллах и высота нижней границы облаков в метрах; квадратными скобками обозначены формы облаков: Ci - перистые, Cs - перисто-слоистые, Cc - перисто-кучевые, Ac - высококучевые, As - высокослоистые, Sc - слоисто-кучевые, Ns - слоисто-дождевые, Cu - кучевые, Cb - кучево-дождевые. Подробнее классификацию облаков см. в Атласе облаков (PDF).
T - Температура воздуха - температура, измеренная на высоте 2 м над землей.
Td - Температура точки росы - температура, при понижении до которой содержащийся в воздухе водяной пар достигнет насыщения.
f - Относительная влажность воздуха - влажноcть воздуха, измеренная на высоте 2 м над землей.
Te - Эффективная температура - температура, которую ощущает одетый по сезону человек в тени. Характеристика душности погоды. При расчете учитывается влияние влажности воздуха и скорости ветра на теплоощущения человека.
Tes - Эффективная температура на солнце - температура, которую ощущает человек, с поправкой на солнечный нагрев. Характеристика знойности погоды. Зависит от высоты солнца над горизонтом, облачности и скорости ветра. Ночью, в пасмурную погоду, а также при ветре 12 м/с и более поправка равна нулю.
P - Атмосферное давление - приведенное к уровню моря атмосферное давление.
Po - Атмосферное давление - измеренное на уровне метеостанции атмосферное давление.
Tmin - Минимальная температура - минимум температуры воздуха на высоте 2 м над землей.
Tmax - Максимальная температура - максимум температуры воздуха на высоте 2 м над землей.
R - Количество осадков - Количество выпавших осадков за период времени, мм. При наведении курсора мыши на число - период времени, за который выпало указанное количество осадков.
R24 - Количество осадков - Количество выпавших осадков за 24 часа, мм.
S - Снежный покров - Высота снежного покрова, см. При наведении курсора мыши на число - состояние снежного покрова и степень покрытия местности в баллах.